Change the Weather History Date:

Monday, March 4, 2013

  Actual Average (KAPA) Record (KAPA)
Temperature  
Mean Temperature 22 °F -  
Max Temperature 37 °F 46 °F 71 °F (2009)
Min Temperature 5 °F 21 °F 6 °F (2015)
Degree Days  
Heating Degree Days 44    
Moisture  
Dew Point 18 °F    
Average Humidity 80    
Maximum Humidity 100    
Minimum Humidity 56    
Precipitation  
Precipitation 0.01 in - - ()
Sea Level Pressure  
Sea Level Pressure 29.88 in    
Wind  
Wind Speed 7 mph (North)    
Max Wind Speed 18 mph    
Max Gust Speed 26 mph    
Visibility 9 miles    
Events Snow    
Averages and records for this station are not official NWS values.
T = Trace of Precipitation, MM = Missing Value Source: NWS Daily Summary

Daily Weather History Graph

Daily Weather History Graph

Search for Another Location

Airport or City:

Trip Planner

Search our weather history database for the weather conditions in past years. The results will help you decide how hot, cold, wet, or windy it might be!

Date:

Astronomy

Mar. 04, 2013 Rise Set
Actual Time 6:26 AM MST 5:54 PM MST
Civil Twilight 5:59 AM MST 6:21 PM MST
Nautical Twilight 5:28 AM MST 6:52 PM MST
Astronomical Twilight 4:57 AM MST 7:23 PM MST
Moon 12:36 AM MST (3/4) 10:40 AM MST (3/4)
Length of Visible Light 12h 21m
Length of Day
11h 28m
Waning Gibbous, 51% of the Moon is Illuminated
Mar 4
Waning Gibbous
Mar 4
Last Quarter
Mar 11
New
Mar 19
First Quarter
Mar 27
Full

Hourly Weather History & Observations

Time (MST) Temp. Windchill Dew Point Humidity Pressure Visibility Wind Dir Wind Speed Gust Speed Precip Events Conditions
12:14 AM 35.6 °F 29.9 °F 21.2 °F 56% 29.73 in 10.0 mi SW 6.9 mph - N/A   Clear
12:34 AM 35.6 °F 31.7 °F 21.2 °F 56% 29.73 in 10.0 mi SW 4.6 mph - N/A   Clear
12:54 AM 33.8 °F 27.7 °F 21.2 °F 60% 29.73 in 10.0 mi WSW 6.9 mph - N/A   Clear
1:14 AM 33.8 °F 25.8 °F 21.2 °F 60% 29.73 in 10.0 mi SW 10.4 mph - N/A   Clear
1:53 AM 33.8 °F 30.8 °F 23.0 °F 65% 29.73 in 10.0 mi West 3.5 mph - N/A   Clear
2:13 AM 37.4 °F 32.8 °F 23.0 °F 56% 29.72 in 10.0 mi West 5.8 mph - N/A   Mostly Cloudy
2:34 AM 33.8 °F 28.6 °F 23.0 °F 65% 29.71 in 10.0 mi West 5.8 mph - N/A   Scattered Clouds
2:53 AM 33.8 °F 26.4 °F 23.0 °F 65% 29.73 in 10.0 mi West 9.2 mph - N/A   Clear
3:14 AM 33.8 °F 28.6 °F 24.8 °F 70% 29.72 in 10.0 mi West 5.8 mph - N/A   Clear
3:34 AM 33.8 °F 29.6 °F 23.0 °F 65% 29.71 in 10.0 mi WNW 4.6 mph - N/A   Scattered Clouds
3:52 AM 35.6 °F 31.7 °F 23.0 °F 60% 29.72 in 10.0 mi West 4.6 mph - N/A   Clear
4:14 AM 33.8 °F 27.7 °F 23.0 °F 65% 29.72 in 10.0 mi West 6.9 mph - N/A   Clear
4:54 AM 32.0 °F - 24.8 °F 75% 29.73 in 10.0 mi Calm Calm - N/A   Clear
5:12 AM 32.0 °F - 24.8 °F 75% 29.73 in 10.0 mi Calm Calm - N/A   Clear
5:34 AM 33.8 °F - 23.0 °F 65% 29.73 in 10.0 mi Calm Calm - N/A   Scattered Clouds
5:52 AM 28.4 °F 19.1 °F 23.0 °F 80% 29.75 in 10.0 mi NE 10.4 mph - N/A   Mostly Cloudy
6:11 AM 26.6 °F 15.2 °F 24.8 °F 93% 29.76 in 1.5 mi ENE 13.8 mph - N/A   Overcast
6:31 AM 24.8 °F 13.4 °F 24.8 °F 100% 29.78 in 1.2 mi ENE 12.7 mph 18.4 mph N/A   Overcast
6:54 AM 23.0 °F 13.1 °F 21.2 °F 93% 29.81 in 10.0 mi NNE 9.2 mph - N/A   Overcast
7:13 AM 23.0 °F 14.7 °F 21.2 °F 93% 29.82 in 10.0 mi NNE 6.9 mph - N/A   Overcast
7:33 AM 23.0 °F 14.7 °F 21.2 °F 93% 29.81 in 10.0 mi NE 6.9 mph - N/A   Overcast
7:54 AM 23.0 °F 17.0 °F 21.2 °F 93% 29.80 in 10.0 mi East 4.6 mph - N/A   Overcast
8:10 AM 23.0 °F 15.8 °F 21.2 °F 93% 29.79 in 10.0 mi ENE 5.8 mph - N/A   Overcast
8:33 AM 24.8 °F 20.5 °F 21.2 °F 86% 29.80 in 10.0 mi NE 3.5 mph - N/A   Mostly Cloudy
8:54 AM 24.8 °F 16.1 °F 21.2 °F 86% 29.79 in 10.0 mi North 8.1 mph - N/A   Overcast
9:09 AM 26.6 °F 21.2 °F 23.0 °F 86% 29.79 in 10.0 mi NE 4.6 mph - N/A   Mostly Cloudy
9:34 AM 28.4 °F 23.3 °F 21.2 °F 74% 29.79 in 10.0 mi NE 4.6 mph - N/A   Mostly Cloudy
9:54 AM 30.2 °F 23.4 °F 21.2 °F 69% 29.78 in 10.0 mi NE 6.9 mph - N/A   Mostly Cloudy
10:14 AM 30.2 °F - 23.0 °F 75% 29.77 in 10.0 mi Calm Calm - N/A   Mostly Cloudy
10:30 AM 30.2 °F 26.7 °F 21.2 °F 69% 29.78 in 10.0 mi NNE 3.5 mph - N/A   Scattered Clouds
10:54 AM 30.2 °F 24.3 °F 21.2 °F 69% 29.77 in 10.0 mi NE 5.8 mph - N/A   Scattered Clouds
11:14 AM 30.2 °F 23.4 °F 23.0 °F 75% 29.78 in 10.0 mi NNE 6.9 mph - N/A   Scattered Clouds
11:50 AM 30.2 °F 22.6 °F 23.0 °F 75% 29.78 in 10.0 mi NNE 8.1 mph - N/A   Overcast
12:14 PM 28.4 °F 21.2 °F 21.2 °F 74% 29.78 in 10.0 mi ENE 6.9 mph - N/A Snow Snow
12:34 PM 30.2 °F 20.8 °F 21.2 °F 69% 29.78 in 7.0 mi ENE 11.5 mph - N/A Snow Light Snow
12:52 PM 30.2 °F 20.8 °F 21.2 °F 69% 29.79 in 10.0 mi NE 11.5 mph - N/A   Overcast
1:13 PM 26.6 °F 14.3 °F 21.2 °F 80% 29.81 in 10.0 mi NNE 16.1 mph 19.6 mph N/A   Overcast
1:34 PM 23.0 °F 8.7 °F 21.2 °F 93% 29.83 in 5.0 mi NNE 18.4 mph 25.3 mph N/A Snow Light Snow
1:54 PM 23.0 °F 9.6 °F 21.2 °F 93% 29.85 in 1.0 mi North 16.1 mph 21.9 mph N/A Snow Light Snow
2:14 PM 23.0 °F 10.1 °F 21.2 °F 93% 29.86 in 0.5 mi NNE 15.0 mph 20.7 mph N/A Snow Snow
2:33 PM 23.0 °F 10.1 °F 21.2 °F 93% 29.87 in 0.8 mi NNE 15.0 mph - N/A Snow Snow
2:51 PM 21.2 °F 8.9 °F 21.2 °F 100% 29.90 in 0.5 mi North 12.7 mph 19.6 mph N/A Snow Light Snow
3:10 PM 21.2 °F 6.8 °F 19.4 °F 93% 29.91 in 0.5 mi NNE 17.3 mph 24.2 mph N/A Snow Snow
3:33 PM 19.4 °F 4.1 °F 17.6 °F 93% 29.95 in - North 18.4 mph 26.5 mph N/A   Overcast
3:49 PM 19.4 °F 5.5 °F 17.6 °F 93% 29.94 in - NNE 15.0 mph 23.0 mph 0.01 in   Overcast
4:10 PM 19.4 °F 4.1 °F 17.6 °F 93% 29.95 in - NNE 18.4 mph 21.9 mph N/A   Overcast
4:34 PM 19.4 °F 7.2 °F 17.6 °F 93% 29.95 in - North 11.5 mph 19.6 mph N/A   Overcast
4:50 PM 19.4 °F 6.6 °F 17.6 °F 93% 29.96 in - North 12.7 mph 18.4 mph N/A   Overcast
5:14 PM 19.4 °F 6.0 °F 17.6 °F 93% 29.99 in - North 13.8 mph 18.4 mph N/A   Unknown
5:34 PM 19.4 °F 7.2 °F 15.8 °F 86% 30.01 in - North 11.5 mph - N/A   Unknown
5:50 PM 19.4 °F 6.6 °F 15.8 °F 86% 30.02 in - North 12.7 mph - N/A   Overcast
6:13 PM 19.4 °F 7.2 °F 14.0 °F 80% 30.03 in - North 11.5 mph - N/A   Unknown
6:34 PM 17.6 °F 5.7 °F 12.2 °F 79% 30.04 in - North 10.4 mph - N/A   Mostly Cloudy
6:54 PM 15.8 °F 5.1 °F 12.2 °F 86% 30.06 in - North 8.1 mph - N/A   Unknown
7:31 PM 14.0 °F 3.9 °F 10.4 °F 86% 30.08 in - NNW 6.9 mph - N/A   Unknown
7:51 PM 14.0 °F 3.9 °F 10.4 °F 86% 30.09 in - NNW 6.9 mph - N/A   Unknown
8:14 PM 12.2 °F 2.9 °F 8.6 °F 85% 30.10 in 10.0 mi NW 5.8 mph - N/A   Clear
8:34 PM 12.2 °F 4.3 °F 8.6 °F 85% 30.11 in 10.0 mi WNW 4.6 mph - N/A   Clear
8:49 PM 12.2 °F 2.9 °F 8.6 °F 85% 30.12 in 10.0 mi NW 5.8 mph - N/A   Clear
9:14 PM 12.2 °F 1.7 °F 6.8 °F 79% 30.12 in 10.0 mi NNW 6.9 mph - N/A   Clear
9:34 PM 12.2 °F 4.3 °F 5.0 °F 73% 30.13 in 10.0 mi NNW 4.6 mph - N/A   Clear
9:53 PM 12.2 °F 2.9 °F 5.0 °F 73% 30.13 in 10.0 mi NNW 5.8 mph - N/A   Clear
10:11 PM 10.4 °F 2.2 °F 5.0 °F 79% 30.13 in 10.0 mi NW 4.6 mph - N/A   Clear
10:32 PM 12.2 °F 6.1 °F 5.0 °F 73% 30.13 in 10.0 mi NW 3.5 mph - N/A   Clear
10:54 PM 10.4 °F 4.0 °F 3.2 °F 73% 30.14 in 10.0 mi West 3.5 mph - N/A   Clear
11:14 PM 8.6 °F 2.0 °F 3.2 °F 79% 30.14 in 10.0 mi West 3.5 mph - N/A   Clear
11:34 PM 6.8 °F - 1.4 °F 79% 30.14 in 10.0 mi Calm Calm - N/A   Clear
11:54 PM 5.0 °F -2.1 °F 1.4 °F 85% 30.15 in 10.0 mi SW 3.5 mph - N/A   Clear